This demonstration page uses our WeatherBlox Daily Observations layout. Learn more.

Left ArrowRight Arrow

34.74481, -87.66753

Hourly Observations for December 21, 2020

Temp ( °F °C ) Dew Point ( °F °C ) Humidity (%) Winds ( mph kmh ) Pressure ( in mb ) Visibility ( mi km ) Precip ( " mm )
12:53 am 00:53 Cloudy 43 6.1 39 3.9 86 86 Calm 30.01 1016 10 16 0.00 0.00
1:53 am 01:53 Cloudy 44 6.7 39 3.9 83 83 Calm 30.02 1017 10 16 0.00 0.00
2:01 am 02:01 Cloudy 44 6.7 39 3.9 83 83 S 3 6 30.03 1017 10 16 0.00 0.00
2:28 am 02:28 Partly Cloudy 43 6.1 38 3.3 82 82 SW 3 6 30.04 1017 10 16 0.00 0.00
2:53 am 02:53 Clear with Mist and Fog 39 3.9 36 2.2 89 89 Calm 30.02 1017 6 10 0.00 0.00
3:17 am 03:17 Hazy 41 5 35 1.7 79 79 Calm 30.05 1018 2 3 0.00 0.00
3:35 am 03:35 Clear with Mist and Fog 40 4.4 36 2.2 86 86 WSW 3 6 30.05 1018 3 5 0.00 0.00
3:42 am 03:42 Hazy 41 5 36 2.2 82 82 WSW 3 6 30.05 1018 2 3 0.00 0.00
3:53 am 03:53 Partly Cloudy with Mist and Fog 40 4.4 36 2.2 86 86 WSW 3 6 30.03 1017 1 2 0.00 0.00
3:57 am 03:57 Mostly Cloudy with Mist and Fog 40 4.4 37 2.8 89 89 Calm 30.05 1018 2 2 0.00 0.00
4:09 am 04:09 Mostly Cloudy with Mist and Fog 40 4.4 36 2.2 86 86 W 5 7 30.05 1018 3 5 0.00 0.00
4:22 am 04:22 Cloudy with Mist and Fog 41 5 37 2.8 86 86 SW 3 6 30.05 1018 6 10 0.00 0.00
4:53 am 04:53 Cloudy 43 6.1 38 3.3 82 82 WSW 5 7 30.03 1017 9 14 0.00 0.00
5:53 am 05:53 Cloudy 44 6.7 39 3.9 83 83 W 6 9 30.04 1017 9 14 0.00 0.00
6:53 am 06:53 Cloudy 45 7.2 39 3.9 80 80 W 9 15 30.06 1018 9 14 0.00 0.00
7:53 am 07:53 Cloudy 46 7.8 39 3.9 77 77 W 8 13 30.08 1019 9 14 0.00 0.00
8:31 am 08:31 Cloudy 46 7.8 40 4.4 79 79 SW 9 15 30.10 1019 9 14 0.00 0.00
8:53 am 08:53 Cloudy 47 8.3 39 3.9 74 74 SW 10 17 30.09 1019 10 16 0.00 0.00
9:53 am 09:53 Cloudy 50 10 41 5 71 71 SW 14 22 30.10 1019 10 16 0.00 0.00
10:13 am 10:13 Partly Cloudy 50 10 40 4.4 68 68 SW 9 15 30.11 1020 10 16 0.00 0.00
10:53 am 10:53 Sunny 52 11.1 40 4.4 64 64 WSW 9 15 30.09 1019 10 16 0.00 0.00
11:53 am 11:53 Sunny 57 13.9 40 4.4 53 53 SW 14 22 30.04 1017 10 16 0.00 0.00
12:53 pm 12:53 Sunny 60 15.6 37 2.8 42 42 W 16 26 30.03 1017 10 16 0.00 0.00
1:53 pm 13:53 Sunny 62 16.7 34 1.1 35 35 WSW 17 28 30.01 1016 10 16 0.00 0.00
2:53 pm 14:53 Sunny 63 17.2 31 -0.6 30 30 W 23 37 30.02 1017 10 16 0.00 0.00
3:53 pm 15:53 Sunny 61 16.1 34 1.1 36 36 W 14 22 30.05 1018 10 16 0.00 0.00
4:53 pm 16:53 Clear 56 13.3 35 1.7 46 46 WSW 9 15 30.05 1018 10 16 0.00 0.00
5:53 pm 17:53 Clear 52 11.1 35 1.7 53 53 WSW 8 13 30.07 1018 10 16 0.00 0.00
6:53 pm 18:53 Clear 51 10.6 34 1.1 52 52 WSW 7 11 30.09 1019 10 16 0.00 0.00
7:53 pm 19:53 Clear 50 10 34 1.1 54 54 WSW 7 11 30.11 1020 10 16 0.00 0.00
8:53 pm 20:53 Clear 49 9.4 34 1.1 56 56 WSW 3 6 30.13 1020 10 16 0.00 0.00
9:53 pm 21:53 Clear 46 7.8 33 0.6 61 61 SW 3 6 30.14 1021 10 16 0.00 0.00
10:53 pm 22:53 Clear 44 6.7 33 0.6 65 65 Calm 30.15 1021 10 16 0.00 0.00
11:53 pm 23:53 Clear 47 8.3 36 2.2 66 66 WNW 5 7 30.15 1021 10 16 0.00 0.00

Powered by AerisWeather